Location: Fours
(44.3167°N, 6.7000°E)
Time: 11:43:11
(UTC+00:00)

N. Korean satellite - Visible Passes

Search period start: 28 September 2021 00:00
Search period end: 08 October 2021 00:00
Orbit: 449 x 498 km, 97.3° (Epoch: 27 September)

Date Brightness Start Highest point End Pass type
(mag) Time Alt. Az. Time Alt. Az. Time Alt. Az.
28 Sep 10.1 03:44:52 10° ENE 03:46:04 11° E 03:47:16 10° ESE visible
29 Sep 6.9 04:48:11 10° NNE 04:51:46 72° E 04:55:23 10° S visible
30 Sep 8.7 04:20:39 10° NNE 04:23:53 31° E 04:27:07 10° SSE visible
01 Oct 9.8 03:53:43 10° NE 03:55:52 15° E 03:58:01 10° SE visible
02 Oct 6.6 04:57:49 10° N 05:01:27 85° WNW 05:05:05 10° SSW visible
03 Oct 8.1 04:30:06 10° NNE 04:33:33 41° E 04:37:00 10° S visible
04 Oct 9.5 04:02:51 10° NE 04:05:32 19° E 04:08:13 10° SE visible
06 Oct 7.4 04:39:31 10° NNE 04:43:06 55° E 04:46:41 10° S visible
07 Oct 9.1 04:12:01 10° NE 04:15:04 25° E 04:18:08 10° SSE visible
